CAPE
5 2 5 8 1 0 0 0 0 0 0 0 0 0 0 0 0 0 0 0 2 3 4 1 6 0 0 0 0 0 111 181 0 0 0 0 0 0 0 0 0 0 0 7 85 64 75
12 12 4 4 4 0 0 0 0 0 0 0 0 0 0 0 0 0 0 0 0 4 4 3 2 0 0 0 0 0 0 0 0 0 0 0 0 0 0 0 0 0 0 104 135 92 68
14 12 14 11 7 2 8 0 0 0 0 0 0 0 0 0 0 0 0 0 0 0 0 2 0 0 0 0 0 0 0 0 0 0 0 0 0 0 0 0 0 0 0 28 148 111 107
24 20 14 15 9 10 8 9 0 0 0 0 0 0 0 0 0 0 0 0 0 0 0 0 0 0 0 0 0 0 0 0 0 0 0 0 0 1 0 0 0 0 0 0 66 111 73
20 25 23 16 13 14 14 0 0 0 0 0 0 0 0 0 0 0 0 0 0 0 0 0 0 0 0 0 0 0 0 0 0 0 0 0 0 0 0 1 0 0 0 0 0 7 52
32 27 24 22 13 10 14 12 3 0 0 0 0 0 0 0 0 0 0 0 0 0 0 0 0 0 0 0 0 0 0 0 0 0 0 0 0 0 0 0 0 0 0 0 0 0 3
34 48 32 19 23 18 13 23 11 5 0 0 0 0 0 0 0 0 0 0 0 0 0 0 0 0 0 0 0 0 0 0 0 0 0 0 0 0 0 0 0 0 0 0 0 0 2
58 45 44 37 33 31 24 18 16 7 2 0 0 0 0 0 0 0 0 0 0 0 0 0 0 0 0 0 0 0 0 0 0 0 0 0 0 0 0 0 0 0 0 0 0 0 0
62 55 45 45 39 31 33 22 0 2 7 0 0 0 0 0 0 0 0 0 0 0 0 0 0 0 0 0 0 0 0 0 0 0 0 0 0 0 0 0 0 0 0 0 0 0 0
69 68 53 55 52 39 50 29 12 14 0 0 0 0 0 0 0 0 0 0 0 0 0 0 0 0 0 0 0 0 0 0 0 0 0 0 0 0 0 0 0 0 0 0 0 0 0
76 69 63 80 64 36 25 39 20 24 10 0 0 0 0 0 0 0 0 0 0 0 0 0 0 0 0 0 0 0 0 0 0 0 0 0 0 0 0 0 0 0 0 0 4 0 0
90 80 78 67 65 47 37 45 25 23 24 0 0 0 0 0 0 0 0 0 0 0 0 0 0 0 0 0 0 0 0 0 0 0 0 0 0 0 0 0 0 0 0 0 0 0 0
62 97 83 66 69 74 73 59 44 26 29 19 8 0 0 0 0 0 0 0 11 1 0 0 0 0 0 0 0 0 0 0 0 0 0 0 0 0 0 0 0 0 0 0 0 0 0
85 108 104 87 81 76 81 63 49 36 30 25 17 0 0 0 0 0 0 57 1 0 0 0 0 0 0 0 0 0 0 0 0 0 0 0 0 0 0 0 0 0 0 0 0 0 0
34 92 106 93 72 83 85 69 47 39 44 34 24 5 2 0 0 0 43 22 0 0 0 0 0 0 0 0 0 0 0 0 0 0 0 1 2 0 0 0 0 0 0 0 0 0 0
57 56 131 111 83 74 79 80 91 49 54 55 47 16 5 0 0 0 22 1 1 0 0 0 0 0 0 0 0 0 0 0 0 0 0 4 2 0 0 1 0 0 0 6 3 2 4
35 83 104 91 98 98 78 72 70 80 49 72 47 34 10 0 0 2 8 5 0 0 0 0 0 0 0 0 0 0 0 0 0 7 15 19 1 0 2 0 0 0 0 0 0 0 0
27 68 87 105 93 78 102 83 88 71 48 64 43 39 3 0 1 0 20 10 0 0 0 0 0 0 0 0 0 0 0 0 0 0 3 10 0 8 0 0 0 0 0 0 0 0 0
29 55 72 98 121 84 75 90 73 70 51 44 41 75 24 0 0 0 0 13 0 0 0 0 0 0 0 0 0 0 0 20 4 5 0 0 0 0 0 0 0 0 0 0 0 0 0
34 61 85 96 118 120 93 103 92 11 65 60 64 67 74 5 0 0 0 0 0 0 0 0 0 0 0 0 0 2 0 15 8 0 0 4 0 0 0 0 0 0 21 4 0 0 0
31 62 90 81 113 142 128 109 85 104 78 73 77 59 13 4 0 0 0 0 0 0 0 1 0 0 0 0 0 0 0 12 7 0 1 0 0 0 0 0 0 0 2 9 0 0 0
32 64 62 75 99 126 156 106 29 24 91 63 90 71 53 6 2 0 0 0 0 0 0 0 0 0 0 0 0 8 1 0 1 0 0 0 0 0 0 0 0 0 0 0 0 0 0
45 72 79 73 86 141 163 88 55 53 34 21 29 27 60 8 2 3 0 0 0 0 0 0 0 0 0 0 17 6 0 3 0 0 0 0 0 0 0 0 0 0 0 0 0 0 0
56 80 87 81 104 137 55 28 27 15 14 78 21 28 97 13 8 0 0 0 0 0 0 0 0 0 0 0 0 0 0 0 0 4 0 0 0 0 0 0 0 0 0 0 0 0 0
65 83 90 82 90 112 65 76 63 36 8 43 18 42 74 36 11 5 0 0 0 0 0 0 21 0 0 0 0 0 0 0 0 0 0 0 0 0 0 0 0 0 0 0 0 0 0
66 78 83 72 78 91 76 66 37 48 5 18 10 3 10 71 12 36 0 0 0 0 0 53 28 0 38 0 0 0 0 0 0 0 0 0 0 0 0 0 0 0 0 0 0 0 0
73 78 78 73 70 84 84 51 6 0 25 20 31 7 22 12 79 41 2 0 0 0 3 64 60 36 0 0 0 0 0 0 0 0 0 0 0 0 0 0 0 0 0 0 0 0 0
75 78 64 63 75 87 75 25 4 2 66 4 20 4 37 38 0 6 0 0 0 0 6 4 24 2 0 7 0 0 0 0 0 0 0 0 0 0 0 0 0 0 0 0 0 0 0
85 79 73 80 75 87 59 42 5 74 64 2 7 15 9 22 27 0 0 0 0 0 17 0 1 0 0 0 0 0 0 0 0 0 0 0 0 0 0 0 0 0 0 0 0 0 0
CIN
0 0 0 0 0 0 0 0 0 0 0 0 0 0 0 0 0 0 0 0 0 0 0 0 0 0 0 0 0 0 -705 -695 0 0 0 0 0 -118 0 0 0 0 0 -10 -180 -159 -147
0 0 0 0 0 0 0 0 0 -15 0 0 0 0 0 0 0 0 0 0 0 0 0 0 0 0 0 0 0 0 0 0 0 0 0 0 -49 0 0 0 0 0 0 -96 -136 -152 -186
0 0 0 0 0 0 0 0 0 -1 0 0 0 0 0 0 0 0 0 0 0 0 0 0 0 0 0 0 0 0 0 0 0 0 0 0 0 0 0 0 0 0 0 -97 -147 -156 -142
0 0 0 0 -1 -2 -1 -2 0 0 0 0 0 0 0 0 0 0 0 0 0 0 0 0 0 0 0 0 0 0 0 0 0 0 0 0 0 -123 0 0 0 0 0 0 -95 -127 -116
0 0 0 0 -1 -1 -2 0 0 0 0 0 0 0 0 0 0 0 0 0 0 0 0 0 0 0 0 0 0 0 0 0 0 0 0 0 0 0 -5 -95 0 0 0 0 0 -90 -64
0 0 0 0 0 -1 -1 -1 -2 0 0 0 0 0 0 0 0 0 0 0 0 0 0 0 0 0 0 0 0 0 0 0 0 0 0 0 0 0 0 0 0 0 0 0 0 0 -46
0 0 0 0 0 0 0 0 -1 -1 0 0 0 0 0 0 0 0 0 0 0 0 0 0 0 0 0 0 0 0 0 0 0 0 0 0 0 0 0 0 0 0 0 0 0 0 -6
0 0 0 0 0 0 0 0 -1 -3 -1 0 0 0 0 0 0 0 0 0 0 0 0 0 0 0 0 0 0 0 0 0 0 0 0 0 0 0 0 0 0 0 0 0 0 0 0
-1 -1 0 0 0 0 0 0 0 -2 -2 -1 0 0 0 0 0 0 0 0 0 0 0 0 0 0 0 0 0 0 0 0 0 0 0 0 0 0 -1 0 0 0 0 0 0 0 0
0 -1 0 -1 0 0 0 0 -1 -2 0 0 0 0 0 0 0 0 0 0 0 0 0 0 0 0 0 0 0 0 0 0 0 0 0 0 0 0 0 0 0 0 0 0 0 0 0
0 0 -1 0 0 -1 0 0 -2 -1 -4 0 0 0 0 0 0 0 0 0 0 0 0 0 0 0 0 0 0 0 0 0 0 0 0 0 0 0 0 0 0 0 0 0 -57 0 0
0 0 0 -3 0 0 -1 -1 -3 -4 -4 0 -4 0 0 0 0 0 0 0 0 0 0 0 0 0 0 0 0 0 0 0 0 0 0 0 0 0 0 0 0 0 0 0 0 0 0
0 0 0 0 -3 -1 0 0 -3 -9 -5 -3 -9 0 0 0 0 0 0 0 -1 0 0 0 0 0 0 0 0 0 0 0 0 0 0 0 0 0 0 0 0 0 0 0 0 0 0
0 0 0 0 0 -2 0 0 -5 -10 -6 -5 -7 0 0 0 0 0 0 -4 0 0 0 0 0 0 0 0 0 0 0 0 0 0 0 0 -35 0 0 0 0 0 0 0 0 0 0
-2 0 0 0 0 -4 -1 0 -1 -5 -7 -5 -7 -1 0 0 0 0 -10 0 0 0 0 0 0 0 0 0 0 0 0 0 0 0 0 -8 -38 0 -10 -17 0 0 0 0 -6 0 -2
0 0 0 0 0 0 -5 -4 -1 -2 -4 -10 0 -7 -3 0 0 0 0 -1 -3 0 0 0 0 0 0 0 0 0 0 0 0 0 0 -68 -23 0 0 -23 0 0 0 -20 -2 -26 -21
0 0 0 0 -1 -1 0 -2 -7 -1 -2 -9 -1 0 -19 0 -6 -1 -1 -1 0 0 0 0 0 0 0 0 0 0 0 0 0 -167 -175 -217 -52 0 -52 0 0 0 0 0 0 0 0
0 0 0 0 0 -9 0 -1 -4 -1 -2 -4 -2 0 -14 0 -3 0 0 -2 0 0 0 -16 0 0 0 0 0 0 0 0 0 0 -60 -193 -80 -56 -80 0 0 0 0 0 0 0 0
0 0 0 0 0 0 0 -4 -8 -5 -1 -2 -1 -3 -49 0 0 0 0 0 0 0 0 0 0 0 0 0 0 0 0 -148 -208 -96 0 0 0 0 0 0 0 0 0 0 0 0 0
0 0 0 0 0 0 -1 -6 -1 -12 0 -3 -3 -1 -1 -16 0 0 0 0 0 0 0 0 0 0 0 0 0 -57 -7 -155 -129 0 0 -22 0 0 0 0 0 0 -30 -19 0 0 0
0 0 0 0 0 0 0 -20 -2 0 -1 -2 -2 -7 -11 -9 0 0 0 0 0 0 0 -83 0 0 0 0 0 0 0 -176 -197 0 -177 0 0 0 0 0 0 0 -13 -59 0 0 0
0 0 0 0 0 0 0 -1 -37 -2 -1 -7 -1 -15 -18 -9 -1 0 0 0 0 0 0 0 0 0 0 0 0 -64 -131 0 -117 -1 0 0 0 0 0 0 0 0 0 0 0 0 0
0 0 0 0 0 0 0 -3 -1 -6 -10 -5 -5 -83 -13 -20 -1 -1 0 0 0 0 0 0 0 0 0 0 -105 -39 0 -79 0 0 0 0 0 0 0 0 0 0 0 0 0 0 0
0 0 0 0 0 0 -2 -5 -6 -1 0 -5 -5 -24 -23 -8 -2 -1 0 0 0 0 0 0 0 0 0 0 0 0 0 0 0 -76 0 0 0 0 0 0 0 0 0 0 0 0 0
0 0 0 0 0 0 0 -2 0 -36 0 -6 -5 -12 -8 -5 -7 -2 0 0 0 0 0 0 -123 0 0 0 0 0 0 0 0 0 0 0 0 0 0 0 0 0 0 0 0 0 0
0 0 0 0 0 0 0 0 0 0 -2 -1 -1 0 0 -4 -17 -5 -1 0 0 0 0 -115 -209 0 -257 0 0 0 0 0 0 0 0 0 0 0 0 0 0 0 0 0 0 0 0
0 0 0 0 0 0 0 0 0 0 0 -2 -4 -1 0 0 -35 -15 -4 0 0 0 -44 -147 -149 -107 0 0 -13 0 0 0 0 0 0 0 0 0 0 0 0 0 0 0 0 0 0
0 0 0 0 0 0 0 -18 -40 -4 -1 -6 -1 -15 -1 0 -29 -27 0 0 0 0 -91 -59 -142 -26 0 -80 0 0 0 0 0 0 0 0 0 0 0 0 0 0 0 0 0 0 0
0 0 0 0 0 0 0 0 -4 -16 -4 -13 -1 -9 0 0 0 0 0 0 0 0 -104 0 -4 0 0 0 0 0 -7 0 0 0 0 0 0 0 0 0 0 0 0 0 0 0 0
Wind_Speed
12 12 10 10 8 8 9 9 11 10 10 10 9 9 9 9 10 9 9 10 12 15 15 14 14 14 6 3 9 1 7 10 7 6 4 3 1 1 3 3 5 6 14 3 9 11 6
14 13 12 11 10 10 11 9 10 11 10 10 9 10 10 8 9 8 8 10 10 13 13 13 12 11 2 5 3 5 7 7 5 5 3 3 4 5 5 5 3 6 3 8 10 6 4
17 15 14 13 11 11 11 10 10 10 10 10 10 10 10 9 9 9 9 10 10 11 10 10 9 4 1 15 3 3 6 6 5 6 4 5 4 3 2 6 7 4 3 12 6 7 3
18 17 16 14 12 11 10 10 11 10 11 10 10 10 9 9 9 9 10 11 10 11 9 8 6 2 9 6 5 6 9 5 5 5 3 6 5 3 0 2 8 6 5 5 9 8 9
20 19 18 16 13 12 11 10 11 10 10 10 11 10 9 9 9 9 11 12 10 11 8 7 2 0 11 13 5 7 9 8 6 4 7 4 3 2 7 3 5 5 1 2 3 10 7
23 21 19 18 16 13 11 11 11 11 10 11 11 10 9 8 7 9 11 16 7 6 1 4 5 5 7 3 5 4 7 6 4 4 3 3 5 3 4 4 1 2 2 3 3 4 4
25 24 21 22 18 18 16 14 11 12 10 10 11 10 9 6 5 6 7 5 2 2 2 9 5 5 6 5 6 6 6 6 3 6 2 2 5 2 5 5 3 2 5 7 13 9 5
25 24 23 21 20 18 17 15 12 11 11 11 10 10 8 5 3 4 3 1 5 3 9 14 17 12 14 3 6 6 5 6 3 4 0 5 2 3 4 2 4 5 7 8 12 8 7
28 26 24 23 22 21 19 18 15 11 10 11 11 10 9 5 1 1 3 7 4 11 4 9 8 6 7 9 7 6 8 5 4 3 4 5 6 3 2 3 4 6 5 6 5 4 6
30 27 25 25 24 21 19 19 16 13 11 10 10 10 11 10 2 2 5 4 6 6 3 8 7 8 6 5 5 7 7 7 3 8 4 3 1 2 3 3 4 7 6 5 6 4 0
33 30 27 24 23 21 19 19 17 14 12 11 10 11 13 9 2 2 1 8 4 3 3 5 6 5 9 9 3 3 6 4 7 6 4 7 5 3 2 8 3 10 4 2 2 4 3
30 32 30 26 23 21 20 19 19 15 13 12 12 13 13 1 1 6 10 8 3 3 10 4 8 7 7 6 4 1 5 3 5 4 2 4 3 6 7 6 5 5 3 7 5 4 3
30 32 32 30 26 22 22 21 19 17 14 12 12 15 11 7 4 1 3 3 4 6 5 5 7 8 9 7 6 7 4 4 5 4 3 5 4 6 3 3 3 3 5 4 5 5 6
33 32 33 31 28 24 22 21 19 18 16 13 11 15 8 4 4 6 3 3 10 8 8 3 7 11 10 7 9 6 7 6 4 5 3 4 5 3 3 4 2 5 6 6 4 2 5
34 31 33 30 30 26 20 17 17 18 17 13 11 5 4 6 3 3 2 10 9 7 5 4 4 8 6 7 7 6 8 9 9 10 8 5 5 5 5 5 6 5 2 4 8 4 3
34 30 30 31 28 28 25 21 20 20 18 15 7 5 5 7 9 3 5 15 7 9 6 4 7 7 9 9 8 8 9 7 7 9 7 7 1 5 6 4 4 7 4 1 3 3 3
35 33 33 29 25 23 24 24 22 20 21 18 7 6 9 13 6 3 13 11 14 21 6 5 3 5 9 9 11 7 9 6 9 5 6 6 4 3 2 3 7 2 0 2 4 5 5
36 35 32 32 30 28 25 23 22 23 22 17 6 8 12 15 8 5 15 13 11 20 6 8 4 10 9 9 8 9 11 9 7 13 10 8 6 4 11 8 2 4 6 6 7 4 0
37 36 36 33 30 28 26 24 25 25 28 11 6 5 9 14 13 14 8 19 19 11 7 4 6 7 2 6 5 5 1 1 2 10 10 8 1 3 8 8 4 5 6 4 5 5 6
37 36 35 34 32 30 29 26 23 27 32 14 7 10 7 9 9 21 19 16 20 14 18 11 10 7 2 3 2 4 4 2 3 4 4 9 5 8 9 7 3 2 1 3 6 4 5
37 36 34 33 32 30 29 26 24 26 34 17 7 9 9 17 19 15 21 15 21 14 11 7 10 17 9 4 4 6 5 2 4 3 3 5 5 4 4 4 1 1 5 4 6 5 6
38 36 34 33 31 29 28 26 27 22 33 16 6 5 8 5 17 20 21 24 27 19 12 19 14 12 8 7 9 8 9 4 5 2 4 2 4 0 2 3 3 3 6 5 5 3 5
37 35 34 32 31 30 29 28 30 29 22 6 10 5 8 7 19 17 24 24 26 20 12 23 11 14 5 9 5 6 6 8 11 10 5 5 7 4 5 4 4 6 8 8 6 3 4
35 34 33 32 30 29 27 21 26 25 22 2 8 3 5 9 15 23 24 24 27 22 20 15 22 10 4 9 7 9 13 10 9 6 6 7 6 3 3 3 2 9 5 3 10 5 6
34 33 33 31 28 28 28 29 26 25 23 9 0 4 2 5 13 14 25 24 13 18 14 21 4 7 12 5 6 6 7 7 5 8 5 3 5 3 6 4 5 6 4 6 6 1 1
32 31 31 30 29 27 27 28 26 26 21 14 7 1 4 3 12 12 21 22 18 10 12 5 1 2 4 4 5 6 6 6 3 4 6 7 7 6 3 5 8 9 4 3 5 0 5
30 30 30 28 26 25 26 27 22 19 22 13 3 6 1 4 4 17 15 18 12 5 8 4 5 3 3 3 4 4 4 7 7 10 5 4 4 5 2 3 9 9 6 2 6 8 6
26 26 25 24 25 25 26 25 21 21 27 13 3 4 2 4 7 7 8 14 9 11 10 5 6 3 4 5 4 4 4 6 5 7 8 8 8 4 4 2 8 6 4 8 8 4 7
21 22 22 23 25 25 24 24 21 24 26 14 3 4 3 5 5 5 6 12 19 10 8 3 5 7 6 6 1 4 3 2 5 3 3 2 9 8 10 9 6 2 4 4 6 7 4
Wind_Direction
265 266 272 271 270 274 287 298 252 242 251 255 260 265 271 282 296 297 305 308 319 318 317 327 328 335 360 320 254 22 100 134 139 155 171 169 242 262 253 268 356 212 265 166 135 170 202
262 260 258 260 264 265 266 274 285 243 240 247 252 258 267 275 285 291 303 307 315 313 316 327 331 334 40 295 193 154 140 145 174 181 131 177 263 250 270 272 188 284 222 100 129 180 185
258 257 257 253 255 260 267 263 271 261 243 244 248 254 266 277 289 296 300 306 308 305 314 320 330 335 278 237 37 189 202 192 194 185 185 206 237 273 226 324 326 276 53 97 182 171 163
262 254 249 252 250 253 256 263 262 268 245 244 245 252 261 276 289 296 302 299 298 296 306 300 321 358 253 246 234 239 232 282 249 231 255 273 256 260 314 318 345 356 47 96 227 188 180
253 259 253 249 246 244 245 258 262 260 257 239 240 245 254 267 283 298 305 293 288 289 285 273 300 216 268 307 253 226 175 217 208 268 275 301 44 353 3 50 358 358 179 139 154 224 138
256 250 253 251 247 244 246 251 257 254 252 244 233 236 242 257 285 309 309 288 266 313 137 232 258 313 275 236 258 210 197 187 240 168 348 42 48 22 22 63 263 2 17 31 293 290 188
251 254 247 253 246 244 243 242 249 252 247 243 230 232 238 243 277 322 355 356 16 22 244 208 188 262 279 298 278 231 191 128 106 64 230 334 63 267 268 191 245 40 9 285 267 244 172
242 245 245 246 251 242 239 241 244 252 248 238 225 225 220 219 272 317 83 238 245 211 296 229 243 245 264 307 312 295 107 129 124 201 119 35 234 255 244 279 11 358 294 287 281 267 147
238 237 241 241 240 246 237 239 239 237 250 243 221 212 188 182 124 81 209 233 302 30 291 283 197 199 224 155 219 257 152 147 157 150 225 147 204 281 275 205 315 281 234 268 278 12 42
229 232 234 240 236 235 247 230 236 229 231 246 223 197 168 134 94 190 243 282 253 144 311 271 193 241 191 181 267 206 177 157 138 187 210 221 302 219 333 260 138 308 223 209 284 74 223
247 223 225 231 229 228 232 237 229 229 218 231 221 189 164 164 147 218 273 341 1 64 338 245 170 178 157 158 213 205 182 111 163 183 146 257 164 137 306 252 124 247 306 223 292 86 85
249 234 218 219 229 228 232 233 225 222 217 222 206 184 148 161 237 250 305 314 88 68 248 267 151 162 130 187 238 328 156 97 139 116 358 257 282 162 211 268 184 266 31 42 46 53 35
243 238 226 216 214 226 226 223 223 215 210 223 202 175 165 161 194 295 304 55 68 199 295 204 173 152 176 198 230 155 207 141 137 106 253 325 250 303 134 349 333 112 60 352 360 14 213
236 238 221 221 207 210 224 222 221 218 203 208 198 173 212 193 63 23 26 117 218 222 247 317 160 162 180 176 229 192 161 198 272 120 115 180 337 352 13 105 298 305 139 154 209 201 272
230 235 213 209 210 197 207 220 224 224 205 194 168 190 181 228 181 49 116 213 191 222 206 222 128 153 216 202 183 167 192 200 200 169 159 154 232 300 226 161 113 321 239 198 102 352 58
224 222 209 204 204 206 197 203 221 222 204 186 194 176 194 142 139 142 215 222 221 235 12 319 179 170 182 206 170 173 182 202 212 174 143 202 222 211 281 229 168 175 196 57 7 149 254
215 212 207 207 195 199 203 199 206 222 206 183 205 190 160 139 121 188 213 220 227 263 310 271 244 220 199 186 183 196 202 233 180 118 106 139 143 283 297 226 192 312 31 104 121 133 165
210 207 204 199 198 190 204 197 201 216 204 181 219 189 158 143 165 213 222 197 240 257 263 269 279 220 211 185 187 188 196 200 158 149 156 194 140 158 212 229 232 188 229 142 123 236 78
206 204 202 199 186 186 194 200 201 211 202 179 213 156 183 158 185 212 218 211 236 248 210 247 256 212 230 159 144 128 193 197 130 165 156 185 121 47 352 343 329 196 205 157 102 84 193
200 198 194 192 190 189 192 202 204 205 211 193 212 169 171 197 210 196 187 198 214 227 248 260 281 316 251 154 221 138 142 311 75 122 68 104 136 158 186 204 200 259 246 143 130 114 187
193 192 191 187 186 191 198 196 193 209 203 190 223 201 169 186 203 200 189 193 209 226 212 209 244 234 248 182 145 189 114 228 50 69 106 113 160 163 199 201 211 223 255 229 170 192 156
188 187 184 183 184 190 198 193 194 216 200 199 205 202 155 189 186 189 192 202 204 211 223 217 236 258 208 187 170 195 133 181 176 67 109 39 199 197 231 47 49 240 259 258 254 191 232
180 180 180 182 185 189 191 195 197 201 207 188 220 269 168 194 179 184 203 194 210 202 221 234 208 236 223 221 173 188 170 156 153 145 151 123 130 105 242 351 359 346 230 215 224 211 178
174 176 177 181 183 188 187 190 195 208 217 178 208 300 219 190 191 200 187 193 206 203 207 210 228 223 233 124 111 48 52 64 80 67 116 125 106 102 190 29 19 240 291 155 107 42 66
169 173 176 179 182 185 186 184 195 205 214 199 162 244 261 189 191 191 195 194 199 215 209 227 237 206 167 85 74 63 355 34 34 43 52 115 121 99 134 191 287 300 180 190 136 148 304
167 172 175 179 183 183 181 187 188 195 216 198 217 21 309 275 208 165 192 191 194 195 216 187 128 306 86 96 87 135 173 163 169 95 55 71 69 116 131 145 206 237 248 130 104 134 176
166 171 175 178 180 181 182 185 191 190 213 184 219 187 280 298 272 176 193 201 177 127 180 158 170 187 48 98 104 137 213 157 157 159 174 57 23 148 120 203 286 245 235 90 108 225 150
159 165 169 177 179 180 183 184 186 201 194 172 121 113 198 264 296 307 178 184 169 187 173 186 90 320 55 84 124 190 125 214 105 159 171 154 139 189 106 69 277 198 105 157 200 160 140
154 166 171 172 176 176 182 182 189 193 173 165 108 162 187 241 269 296 263 265 220 158 136 152 172 169 170 96 46 107 107 91 139 203 131 152 175 177 172 212 240 318 152 105 139 128 116